Home   Weather   Newtown   Past weeks

Flag for United Kingdom Past Weather in Newtown, Wales, United Kingdom — Yesterday and Last 2 Weeks

Now
47 °F

Cool.


Feels Like: 42 °F
Forecast: N/A
Wind: 10 mph from West

Location: Lake Vyrnwy

Current Time: Dec 8, 2016 at 6:26:04 pm

Latest Report: Dec 8, 2016 at 5:00 pm


Visibility: 31 mi

Pressure: 30.24 "Hg

Humidity: 95%

Dew Point: 45 °F

Location of NewtownLocation

Past Weather in Newtown — Graph

°F

Newtown Temperature Yesterday

Maximum temperature yesterday: 55 °F (at 4:00 pm)
Minimum temperature yesterday: 48 °F (at 2:00 am)
Average temperature yesterday: 52 °F

High & Low Weather Summary for the Past Weeks

 TemperatureHumidityPressure
High55 °F (Dec 7, 4:00 pm)100% (Nov 26, 10:00 am)30.59 "Hg (Nov 26, 10:00 am)
Low27 °F (Nov 29, 8:00 am)47% (Nov 29, 1:00 pm)30.06 "Hg (Dec 8, 9:00 am)
Average39 °F88%30.33 "Hg
* Reported Nov 23 5:00 pm — Dec 8 5:00 pm, Newtown, Weather by CustomWeather, © 2016

Note: Actual official high and low records may vary slightly from our data, if they occured in-between our weather recording intervals... More about our weather records

Advertising

Newtown Weather History for the Previous 24 Hours

Scroll right to see more
 ConditionsComfort  
Time TempWeatherWind HumidityBarometerVisibility
5:00 pm
Thu, Dec 8
47 °FCool.10 mph95%30.24 "Hg31 mi
4:00 pm48 °FCool.2 mph94%30.23 "Hg31 mi
3:00 pm49 °FCool.5 mph89%30.21 "Hg31 mi
2:00 pm50 °FCool.16 mph93%30.19 "Hg31 mi
12:00 pm49 °FCool.14 mph87%30.18 "Hg31 mi
11:00 am50 °FCool.17 mph88%30.13 "Hg31 mi
10:00 am50 °FCool.21 mph99%30.09 "Hg31 mi
9:00 am53 °FCool.25 mph95%30.06 "Hg3 mi
8:00 am53 °FCool.17 mph100%30.07 "Hg6 mi
7:00 am52 °FCool.8 mph100%30.08 "Hg1 mi
6:00 am52 °FCool.10 mph100%30.09 "Hg1 mi
5:00 am52 °FCool.12 mph100%30.12 "Hg4 mi
4:00 am52 °FCool.8 mph100%30.15 "Hg1 mi
3:00 am52 °FCool.12 mph100%30.16 "Hg2 mi
1:00 am52 °FCool.12 mph100%30.16 "Hg17 mi
12:00 am52 °FCool.14 mph100%30.16 "Hg2 mi
11:00 pm
Wed, Dec 7
52 °FCool.16 mph100%30.16 "Hg6 mi
10:00 pm52 °FCool.15 mph99%30.16 "Hg7 mi
9:00 pm53 °FCool.17 mph99%30.16 "Hg4 mi
8:00 pm53 °FCool.24 mph99%30.14 "Hg7 mi
7:00 pm53 °FCool.16 mph100%30.13 "Hg3 mi
6:00 pm53 °FCool.14 mph99%30.12 "Hg4 mi
Weather by CustomWeather, © 2016

See weather overviewHow to use our weather pages